Regional Weather Roundup
Issued by NWS Newport/Morehead, NC

Current Version | Previous Version | Graphics & Text | Print | Product List | Glossary On
Versions: 1 2 3 4 5 6 7 8 9 10 11 12 13 14 15 16 17 18 19 20 21 22 23 24 25 26 27 28 29 30 31 32 33 34 35 36 37 38 39 40 41 42 43 44 45 46 47 48 49 50
000 ASUS42 KMHX 190225 RWRMHX WEATHER ROUNDUP FOR EASTERN NORTH CAROLINA NATIONAL WEATHER SERVICE NEWPORT/MOREHEAD CITY NC 1000 PM EDT WED APR 18 2018 NOTE: "FAIR" INDICATES FEW OR NO CLOUDS BELOW 12,000 FEET WITH NO SIGNIFICANT WEATHER AND/OR OBSTRUCTIONS TO VISIBILITY NCZ015>017-031-032-045>047-102-103-190300- NORTH COAST CITY SKY/WX TMP DP RH WIND PRES REMARKS EDENTON FAIR 66 57 72 S9 29.75R ELIZABETH CITY FAIR 64 55 72 S7 29.74S KITTY HAWK FAIR 62 55 79 S6 29.75S MANTEO FAIR 63 57 80 SW15 29.77S $$ NCZ045>047-081-094-103-104-190300- CENTRAL COAST CITY SKY/WX TMP DP RH WIND PRES REMARKS FRISCO FAIR 66 58 75 SW21G32 29.81S $$ NCZ095-097-098-100-101-190300- SOUTHERN COAST CITY SKY/WX TMP DP RH WIND PRES REMARKS BEAUFORT FAIR 64 56 75 SW18G26 29.83S CEDAR ISLAND NOT AVBL JACKSONVILLE FAIR 65 52 62 S6 29.81S PINEY ISLAND NOT AVBL WILMINGTON FAIR 67 51 56 SW18G25 29.83S $$ NCZ011>013-027>030-043-044-078>080-089-090>093-098-190300- COASTAL PLAIN CITY SKY/WX TMP DP RH WIND PRES REMARKS AHOSKIE FAIR 59 51 75 S3 29.72S CLINTON FAIR 73 46 37 S3 29.79R ELIZABETHTOWN FAIR 74 45 35 MISG 29.81R GOLDSBORO FAIR 73 42 33 SW9 29.75R GREENVILLE FAIR 72 46 40 S9 29.77S HAVELOCK CLEAR 67 55 65 MISG 29.82S KENANSVILLE FAIR 70 50 49 S5 29.79R KINSTON FAIR 71 47 42 S15G23 29.77R NEW BERN FAIR 63 53 70 S12 29.80S RICHLANDS FAIR 64 53 67 S9 29.81S ROCKY MOUNT FAIR 71 43 36 S10 29.73R WASHINGTON FAIR 68 53 57 S5 29.76R WHITEVILLE FAIR 69 54 59 S8 29.83R $$ AMZ130-135-150-152-154-156-158-170-250-252-270-ANZ085-086-088-633-658-670-190300- MARINE OBSERVATIONS STATION/POSITION TIME TEMP WIND PRES WAVE SWELL AIR SEA DIR/SP/G HT/PER HT/PER (UTC) (F) (DEG/KT/KT) (MB) (FT/S) (FT/S) CHESAPEAKE LIGHT NOT AVBL 64 E VA BEACH 0150 54 50 150/ 8/ 10 1008.6 3/ 7 3/ 7 DUCK 0200 64 49 180/ 13/ 16 1006.6 2 E DUCK 0200 49 N/A 2/ 9 2/11 OREGON INLET 0200 63 61 200/ 19/ 21 1007.8 13E OREGON INLT 0148 52 N/A 3/ 9 2/ 9 HATTERAS CG 0200 65 62 220/ 18/ 26 1008.9 DIAMOND BUOY 0210 69 64 220/ 23/ 29 1009.9 CAPE LOOKOUT 0200 230/ 12/ 16 1010.6 BEAUFORT LAB 0200 64 63 230/ 6/ 13 1010.4 30 SE NEW RVR IN 0208 69 66 210/ 21/ 27 1009.8 30 SE NEW RVR IN 0200 66 N/A 9/ 7 27 SE WRIGHTSVLE 0208 68 63 220/ 25/ 37 1010.8 5 SE WRIGHTSVLE 0208 65 59 240/ 19/ 27 1010.0 225 S CAPE HAT 0210 72 72 220/ 17/ 23 1016.6 41 SE CHARLESTON 0210 71 68 210/ 19/ 23 1013.9 $$

USA.gov is the U.S. government's official web portal to all federal, state and local government web resources and services.